Location: Silent Lake
(44.9206°N, 78.0708°W)
Time: 19:57:12
(UTC-04:00)

Cosmos 2056 Rocket - Pass Details

Date: 19 April 2018
Orbit: 741 x 802 km, 74.0° (Epoch: 18 September)

Event Time Altitude Azimuth Distance (km) Brightness Sun altitude
Exits shadow 21:32:57 23° 129° (SE) 1,632 4.6 -15.2°
Maximum altitude 21:34:39 28° 99° (E) 1,476 4.5 -15.4°
Drops below altitude 10° 21:39:10 10° 43° (NE) 2,376 6.0 -16.1°
Sets 21:41:51 0° 32° (NNE) 3,304 6.8 -16.5°
